This demonstration page uses our WeatherBlox Daily Observations layout. Learn more.

Left ArrowRight Arrow

39.92423, -83.80882

Hourly Observations for July 15, 2019

Temp ( °F °C ) Dew Point ( °F °C ) Humidity (%) Winds ( mph kmh ) Pressure ( in mb ) Visibility ( mi km ) Precip ( " mm )
12:56 am 00:56 Clear 72 22.2 71 21.7 97 97 N N/A 30.11 1020 10 16.0934 N/A
1:56 am 01:56 Clear 71 21.7 70 21.1 96 96 NW 3 6 30.11 1020 10 16.0934 N/A
2:56 am 02:56 Clear 70 21.1 69 20.6 97 97 N 5 7 30.09 1019 10 16.0934 N/A
3:56 am 03:56 Clear 70 21.1 70 21.1 100 100 N N/A 30.09 1019 10 16.0934 N/A
4:56 am 04:56 Clear 69 20.6 69 20.6 100 100 WSW 3 6 30.1 1019 10 16.0934 N/A
6:56 am 06:56 Sunny 69 20.6 69 20.6 100 100 SW 5 7 30.14 1021 10 16.0934 N/A
7:56 am 07:56 Sunny 72 22.2 70 21.1 94 94 N N/A 30.13 1020 10 16.0934 N/A
8:56 am 08:56 Sunny 76 24.4 68 20 77 77 WSW 6 9 30.13 1020 10 16.0934 N/A
9:56 am 09:56 Sunny 79 26.1 70 21.1 74 74 SW 5 7 30.14 1021 10 16.0934 N/A
10:56 am 10:56 Sunny 83 28.3 72 22.2 70 70 WNW 6 9 30.14 1021 10 16.0934 N/A
11:56 am 11:56 Sunny 85 29.4 72 22.2 65 65 WNW 7 11 30.12 1020 10 16.0934 N/A
12:56 pm 12:56 Sunny 86 30 73 22.8 65 65 N N/A 30.11 1020 10 16.0934 N/A
1:56 pm 13:56 Partly Cloudy 86 30 73 22.8 65 65 VRB 5 7 30.1 1019 10 16.0934 N/A
2:56 pm 14:56 Mostly Sunny 88 31.1 73 22.8 61 61 VRB 6 9 30.08 1019 10 16.0934 N/A
3:56 pm 15:56 Mostly Sunny 86 30 73 22.8 65 65 WSW 6 9 30.06 1018 10 16.0934 N/A
4:56 pm 16:56 Partly Cloudy with Nearby Thunderstorms 80 26.7 71 21.7 74 74 W 21 33 30.08 1019 10 16.0934 0.001 0.001
5:10 pm 17:10 Mostly Cloudy with Nearby Thunderstorms 77 25 70 21 79 79 W 17 28 30.06 1018 10 16.0934 N/A
5:34 pm 17:34 Partly Cloudy with Light Rain 75 24 70 21 83 83 WNW 10 17 30.06 1018 10 16.0934 0.001 0.001
5:56 pm 17:56 Partly Cloudy with Rain 75 23.9 71 21.7 88 88 W 8 13 30.08 1019 10 16.0934 0.001 0.001
6:56 pm 18:56 Sunny 75 23.9 72 22.2 90 90 SSW 13 20 30.09 1019 10 16.0934 0.001 0.001
7:56 pm 19:56 Sunny 75 23.9 72 22.2 90 90 SSW 5 7 30.08 1019 10 16.0934 N/A
8:56 pm 20:56 Sunny 74 23.3 71 21.7 91 91 SW 10 17 30.05 1018 10 16.0934 N/A
9:56 pm 21:56 Clear 73 22.8 70 21.1 90 90 SW 3 6 30.07 1018 10 16.0934 N/A
10:56 pm 22:56 Clear 72 22.2 71 21.7 97 97 N N/A 30.09 1019 10 16.0934 N/A
11:56 pm 23:56 Clear 72 22.2 71 21.7 97 97 S 5 7 30.09 1019 10 16.0934 N/A

Powered by AerisWeather